[Iaude] MPEC T103: 2023 SO11 [a=0.97,e=0.09,i=2.9,H=26.7]

mpec at marsden.cfa.harvard.edu mpec at marsden.cfa.harvard.edu
Sun Oct 8 10:26:29 EDT 2023


M.P.E.C. 2023-T103                              Issued 2023 October 8, 14:25 UT

     The Minor Planet Electronic Circulars contain information on unusual
         minor planets, routine data on comets and natural satellites,
         and occasional editorial announcements.  They are published
    on behalf of Division F of the International Astronomical Union by the
          Minor Planet Center, Smithsonian Astrophysical Observatory,
                          Cambridge, MA 02138, U.S.A.
			  
             Prepared using the Tamkin Foundation Computer Network

                              MPC at CFA.HARVARD.EDU
            URL https://www.minorplanetcenter.net/    ISSN 1523-6714

                                   2023 SO11                                    


Observations:
     K23S11O* C2023 09 18.54905202 59 17.484-16 14 29.28         22.07wXET103F51
     K23S11O  C2023 09 18.55935602 59 16.896-16 14 35.33         22.27wXET103F51
     K23S11O  C2023 09 18.56964402 59 16.272-16 14 40.87         21.89wXET103F51
     K23S11O  C2023 09 18.62470902 59 13.163-16 15 09.07         22.10GVET103F51
     K23S11O  C2023 09 18.62552102 59 13.134-16 15 09.14         22.23GVET103F51
     K23S11O 1C2023 10 06.42254602 39 12.139-19 33 46.66         19.74GVET103G96
     K23S11O 1C2023 10 06.42726702 39 10.696-19 33 49.61         20.34GVET103G96
     K23S11O 1C2023 10 06.43197802 39 09.295-19 33 53.17         19.98GVET103G96
     K23S11O 1C2023 10 06.43669202 39 07.880-19 33 55.80         20.57GVET103G96
     K23S11O  C2023 10 06.44225902 39 20.997-19 33 15.81         20.44wXET103F52
     K23S11O  C2023 10 06.45254102 39 17.800-19 33 26.75         20.82wXET103F52
     K23S11O mC2023 10 06.45963802 39 00.961-19 34 09.41         21.92GVET103I52
     K23S11O mC2023 10 06.46041002 39 00.860-19 34 09.98         20.52GVET103I52
     K23S11O mC2023 10 06.46118202 39 00.619-19 34 10.70         20.32GVET103I52
     K23S11O mC2023 10 06.46195502 39 00.392-19 34 11.10         20.21GVET103I52
     K23S11O  C2023 10 06.46283702 39 14.580-19 33 36.94         20.45wXET103F52
     K23S11O KB2023 10 07.08298802 37 03.38 -19 43 38.2          19.7 GVET103I93
     K23S11O 7C2023 10 07.08635002 37 02.810-19 43 21.91         20.0 GVET103Z84
     K23S11O KB2023 10 07.08955902 37 01.32 -19 43 43.2          20.3 GVET103I93
     K23S11O KB2023 10 07.09581402 36 59.41 -19 43 48.3          19.8 GVET103I93
     K23S11O 7C2023 10 07.12646602 36 50.007-19 43 51.35         20.2 GVET103Z84
     K23S11O 7C2023 10 07.16673302 36 37.478-19 44 15.91         19.9 GVET103Z84

Observer details:
F51 Pan-STARRS 1, Haleakala.  Observers J. Bulger, T. Lowe, P. Minguez, A.
    Schultz, I. Smith, K. Chambers.  Measurers K. Chambers, T. de Boer, J.
    Bulger, J. Fairlamb, H. Gao, M. Huber, C.-C. Lin, T. Lowe, E. Magnier, P.
    Minguez, Y. Ramanjooloo, A. Schultz, I. Smith, R. Wainscoat, R. Weryk, S.
    Chastel.  1.8-m Ritchey-Chretien + CCD.
F52 Pan-STARRS 2, Haleakala.  Observers J. Bulger, T. Lowe, P. Minguez, A.
    Schultz, I. Smith.  Measurers K. Chambers, T. de Boer, J. Bulger, J.
    Fairlamb, H. Gao, M. Huber, C.-C. Lin, T. Lowe, E. Magnier, P. Minguez, Y.
    Ramanjooloo, A. Schultz, I. Smith, R. Wainscoat, R. Weryk.  1.8-m Ritchey-
    Chretien + CCD.
G96 Mt. Lemmon Survey.  Observer K. W. Wierzchos.  Measurers E. C. Beshore, D.
    Fay, J. B. Fazekas, D. C. Fuls, A. R. Gibbs, A. D. Grauer, H. Groeller, J.
    K. Hogan, R. A. Kowalski, S. M. Larson, G. J. Leonard, D. Rankin, R. L.
    Seaman, F. C. Shelly, K. W. Wierzchos.  1.5-m reflector + 10K CCD.
I52 Steward Observatory, Mt. Lemmon Station.  Observer D. Rankin.  Measurers
    E. C. Beshore, D. Fay, J. B. Fazekas, D. C. Fuls, A. R. Gibbs, A. D.
    Grauer, H. Groeller, J. K. Hogan, R. A. Kowalski, S. M. Larson, G. J.
    Leonard, D. Rankin, R. L. Seaman, F. C. Shelly, K. W. Wierzchos.  1.0-m
    prime focus + CCD.
I93 St Pardon de Conques.  Observer F. Losse.  0.40-m f/3.7 reflector + CMO.
Z84 Calar Alto-Schmidt.  Observers F. Ocana, M. Micheli, R. Kresken, L.
    Conversi.  Measurers F. Ocana, M. Micheli.  0.8-m f/3 Schmidt + CCD.

Orbital elements:
2023 SO11                                                Earth MOID = 0.0019 AU
Epoch 2023 Sept. 13.0 TT = JDT 2460200.5                Bell                    
M 212.46624              (2000.0)            P               Q                  
n   1.03078725     Peri.  113.30100     -0.81224961     -0.58273795             
a   0.9705622      Node    31.07368     +0.51523162     -0.73750640             
e   0.0892532      Incl.    2.86825     +0.27347204     -0.34132213             
P   0.96           H   26.74          G   0.15           U   6                  
Residuals in seconds of arc
230918 F51  0.0   0.1-    231006 G96  0.1+  0.0     231007 I93  0.3+  0.0
230918 F51  0.1+  0.2-    231006 F52  0.1+  0.1+    231007 Z84  0.1-  0.4-
230918 F51  0.3-  0.1+    231006 F52  0.1+  0.2-    231007 I93  0.1-  0.2+
230918 F51  0.0   0.1-    231006 I52 (1.5-  0.2+)   231007 I93  0.1+  0.0
230918 F51  0.2+  0.2+    231006 I52  0.3+  0.1+    231007 Z84  0.1-  0.1-
231006 G96  0.2+  0.2-    231006 I52  0.1+  0.2-    231007 Z84  0.1+  0.1+
231006 G96  0.1-  0.0     231006 I52  0.0   0.2-
231006 G96  0.1+  0.4-    231006 F52  0.3+  0.0

Ephemeris:
2023 SO11                a,e,i = 0.97, 0.09, 3                   q = 0.8839
Date    TT    R. A. (2000) Decl.     Delta      r    Elong.  Phase     V
2023 09 08    02 53 46.4 -14 48 46   0.07262 1.0490   122.9    53.7    23.1
...
2023 09 23    02 58 47.4 -16 55 40   0.04900 1.0374   132.4    45.6    22.0
...
2023 10 01    02 51 42.7 -18 21 21   0.03691 1.0293   138.4    40.2    21.2
...
2023 10 07    02 37 22.3 -19 37 47   0.02817 1.0225   143.5    35.6    20.5
2023 10 08    02 33 41.6 -19 51 49   0.02675 1.0213   144.3    34.8    20.4
2023 10 09    02 29 30.2 -20 06 09   0.02534 1.0200   145.2    34.0    20.2
...
2023 10 15    01 47 54.1 -21 30 20   0.01731 1.0124   149.4    30.1    19.3
...
2023 10 23    23 04 37.4 -18 12 55   0.0093031.0012   130.2    49.4    18.4
...
2023 11 07    17 18 56.4 +12 00 06   0.01933 0.9782    47.1   132.1    24.0

M. P. C. Staff               (C) Copyright 2023 MPC           M.P.E.C. 2023-T103





More information about the Iaude mailing list